owner,sensor,date,latitude,longitude,vertical_datum,mass_concentration_of_oxygen_in_sea_water,qcFlag 
DISL,ioos:station:DISL:CATA:1,2010-07-07T00:00:00Z,30.3085,-88.1395,2.773,6.54,1111122 
DISL,ioos:station:DISL:CATA:1,2010-07-07T00:30:00Z,30.3085,-88.1395,2.795,6.6,1111122 
DISL,ioos:station:DISL:CATA:1,2010-07-07T01:00:00Z,30.3085,-88.1395,2.795,6.53,1111122 
DISL,ioos:station:DISL:CATA:1,2010-07-07T01:30:00Z,30.3085,-88.1395,2.782,6.51,1111122 
DISL,ioos:station:DISL:CATA:1,2010-07-07T02:00:00Z,30.3085,-88.1395,2.792,6.65,1111122 
DISL,ioos:station:DISL:CATA:1,2010-07-07T02:30:00Z,30.3085,-88.1395,2.791,6.55,1111122 
DISL,ioos:station:DISL:CATA:1,2010-07-07T03:00:00Z,30.3085,-88.1395,2.801,6.45,1111122 
DISL,ioos:station:DISL:CATA:1,2010-07-07T03:30:00Z,30.3085,-88.1395,2.822,6.41,1111122 
DISL,ioos:station:DISL:CATA:1,2010-07-07T04:00:00Z,30.3085,-88.1395,2.834,6.48,1111122 
DISL,ioos:station:DISL:CATA:1,2010-07-07T04:30:00Z,30.3085,-88.1395,2.841,6.49,1111122 
DISL,ioos:station:DISL:CATA:1,2010-07-07T05:00:00Z,30.3085,-88.1395,2.854,6.47,1111122 
DISL,ioos:station:DISL:CATA:1,2010-07-07T05:30:00Z,30.3085,-88.1395,2.863,6.42,1111122 
DISL,ioos:station:DISL:CATA:1,2010-07-07T06:00:00Z,30.3085,-88.1395,2.907,6.33,1111122 
DISL,ioos:station:DISL:CATA:1,2010-07-07T06:30:00Z,30.3085,-88.1395,2.935,6.22,1111122 
DISL,ioos:station:DISL:CATA:1,2010-07-07T07:00:00Z,30.3085,-88.1395,2.937,6.16,1111122 
DISL,ioos:station:DISL:CATA:1,2010-07-07T07:30:00Z,30.3085,-88.1395,2.961,6.12,1111122 
DISL,ioos:station:DISL:CATA:1,2010-07-07T08:00:00Z,30.3085,-88.1395,2.996,6.1,1111122 
DISL,ioos:station:DISL:CATA:1,2010-07-07T08:30:00Z,30.3085,-88.1395,3.014,5.96,1111122 
DISL,ioos:station:DISL:CATA:1,2010-07-07T09:00:00Z,30.3085,-88.1395,3.036,5.91,1111122 
DISL,ioos:station:DISL:CATA:1,2010-07-07T09:30:00Z,30.3085,-88.1395,3.047,5.89,1111122 
DISL,ioos:station:DISL:CATA:1,2010-07-07T10:00:00Z,30.3085,-88.1395,3.047,5.83,1111122 
DISL,ioos:station:DISL:CATA:1,2010-07-07T10:30:00Z,30.3085,-88.1395,3.071,5.83,1111122 
DISL,ioos:station:DISL:CATA:1,2010-07-07T11:00:00Z,30.3085,-88.1395,3.081,5.98,1111122 
DISL,ioos:station:DISL:CATA:1,2010-07-07T11:30:00Z,30.3085,-88.1395,3.085,5.89,1111122 
DISL,ioos:station:DISL:CATA:1,2010-07-07T12:00:00Z,30.3085,-88.1395,3.091,5.8,1111122 
DISL,ioos:station:DISL:CATA:1,2010-07-07T12:30:00Z,30.3085,-88.1395,3.105,5.6,1111122 
DISL,ioos:station:DISL:CATA:1,2010-07-07T13:00:00Z,30.3085,-88.1395,3.084,5.53,1111122 
DISL,ioos:station:DISL:CATA:1,2010-07-07T13:30:00Z,30.3085,-88.1395,3.054,5.56,1111122 
DISL,ioos:station:DISL:CATA:1,2010-07-07T14:00:00Z,30.3085,-88.1395,3.057,6.0,1111122 
DISL,ioos:station:DISL:CATA:1,2010-07-07T14:30:00Z,30.3085,-88.1395,3.05,6.29,1111122 
DISL,ioos:station:DISL:CATA:1,2010-07-07T15:00:00Z,30.3085,-88.1395,3.005,6.22,1111122 
DISL,ioos:station:DISL:CATA:1,2010-07-07T15:30:00Z,30.3085,-88.1395,2.966,6.47,1111122 
DISL,ioos:station:DISL:CATA:1,2010-07-07T16:00:00Z,30.3085,-88.1395,2.93,6.68,1111122 
DISL,ioos:station:DISL:CATA:1,2010-07-07T16:30:00Z,30.3085,-88.1395,2.888,6.66,1111122 
DISL,ioos:station:DISL:CATA:1,2010-07-07T17:00:00Z,30.3085,-88.1395,2.851,6.53,1111122 
DISL,ioos:station:DISL:CATA:1,2010-07-07T17:30:00Z,30.3085,-88.1395,2.814,6.59,1111122 
DISL,ioos:station:DISL:CATA:1,2010-07-07T18:00:00Z,30.3085,-88.1395,2.787,7.04,1111122 
DISL,ioos:station:DISL:CATA:1,2010-07-07T18:30:00Z,30.3085,-88.1395,2.75,7.15,1111122 
DISL,ioos:station:DISL:CATA:1,2010-07-07T19:00:00Z,30.3085,-88.1395,2.709,7.06,1111122 
DISL,ioos:station:DISL:CATA:1,2010-07-07T19:30:00Z,30.3085,-88.1395,2.666,7.1,1111122 
DISL,ioos:station:DISL:CATA:1,2010-07-07T20:00:00Z,30.3085,-88.1395,2.647,7.12,1111122 
DISL,ioos:station:DISL:CATA:1,2010-07-07T20:30:00Z,30.3085,-88.1395,2.622,7.17,1111122 
DISL,ioos:station:DISL:CATA:1,2010-07-07T21:00:00Z,30.3085,-88.1395,2.595,7.1,1111122 
DISL,ioos:station:DISL:CATA:1,2010-07-07T21:30:00Z,30.3085,-88.1395,2.564,7.46,1111122 
DISL,ioos:station:DISL:CATA:1,2010-07-07T22:00:00Z,30.3085,-88.1395,2.555,7.48,1111122 
DISL,ioos:station:DISL:CATA:1,2010-07-07T22:30:00Z,30.3085,-88.1395,2.537,7.58,1111122 
DISL,ioos:station:DISL:CATA:1,2010-07-07T23:00:00Z,30.3085,-88.1395,2.534,7.66,1111122 
DISL,ioos:station:DISL:CATA:1,2010-07-07T23:30:00Z,30.3085,-88.1395,2.524,7.56,1111122 
DISL,ioos:station:DISL:CATA:1,2010-07-08T00:00:00Z,30.3085,-88.1395,2.535,7.51,1111122 
DISL,ioos:station:DISL:CATA:1,2010-07-08T00:30:00Z,30.3085,-88.1395,2.551,7.46,1111122 
DISL,ioos:station:DISL:CATA:1,2010-07-08T01:00:00Z,30.3085,-88.1395,2.559,7.39,1111122 
DISL,ioos:station:DISL:CATA:1,2010-07-08T01:30:00Z,30.3085,-88.1395,2.576,6.75,1111122 
DISL,ioos:station:DISL:CATA:1,2010-07-08T02:00:00Z,30.3085,-88.1395,2.59,7.21,1111122 
DISL,ioos:station:DISL:CATA:1,2010-07-08T02:30:00Z,30.3085,-88.1395,2.618,6.71,1111122 
DISL,ioos:station:DISL:CATA:1,2010-07-08T03:00:00Z,30.3085,-88.1395,2.624,7.01,1111122 
DISL,ioos:station:DISL:CATA:1,2010-07-08T03:30:00Z,30.3085,-88.1395,2.654,7.16,1111122 
DISL,ioos:station:DISL:CATA:1,2010-07-08T04:00:00Z,30.3085,-88.1395,2.665,7.07,1111122 
DISL,ioos:station:DISL:CATA:1,2010-07-08T04:30:00Z,30.3085,-88.1395,2.688,7.06,1111122 
DISL,ioos:station:DISL:CATA:1,2010-07-08T05:00:00Z,30.3085,-88.1395,2.712,7.0,1111122 
DISL,ioos:station:DISL:CATA:1,2010-07-08T05:30:00Z,30.3085,-88.1395,2.724,6.92,1111122 
DISL,ioos:station:DISL:CATA:1,2010-07-08T06:00:00Z,30.3085,-88.1395,2.74,6.81,1111122 
DISL,ioos:station:DISL:CATA:1,2010-07-08T06:30:00Z,30.3085,-88.1395,2.765,6.79,1111122 
DISL,ioos:station:DISL:CATA:1,2010-07-08T07:00:00Z,30.3085,-88.1395,2.795,6.71,1111122 
DISL,ioos:station:DISL:CATA:1,2010-07-08T07:30:00Z,30.3085,-88.1395,2.823,6.71,1111122 
DISL,ioos:station:DISL:CATA:1,2010-07-08T08:00:00Z,30.3085,-88.1395,2.855,6.61,1111122 
DISL,ioos:station:DISL:CATA:1,2010-07-08T08:30:00Z,30.3085,-88.1395,2.886,6.55,1111122 
DISL,ioos:station:DISL:CATA:1,2010-07-08T09:00:00Z,30.3085,-88.1395,2.911,6.5,1111122 
DISL,ioos:station:DISL:CATA:1,2010-07-08T09:30:00Z,30.3085,-88.1395,2.944,6.47,1111122 
DISL,ioos:station:DISL:CATA:1,2010-07-08T10:00:00Z,30.3085,-88.1395,2.958,6.4,1111122 
DISL,ioos:station:DISL:CATA:1,2010-07-08T10:30:00Z,30.3085,-88.1395,2.979,6.38,1111122 
DISL,ioos:station:DISL:CATA:1,2010-07-08T11:00:00Z,30.3085,-88.1395,2.999,6.35,1111122 
DISL,ioos:station:DISL:CATA:1,2010-07-08T11:30:00Z,30.3085,-88.1395,2.995,6.31,1111122 
DISL,ioos:station:DISL:CATA:1,2010-07-08T12:00:00Z,30.3085,-88.1395,3.008,6.3,1111122 
DISL,ioos:station:DISL:CATA:1,2010-07-08T12:30:00Z,30.3085,-88.1395,3.022,6.26,1111122 
DISL,ioos:station:DISL:CATA:1,2010-07-08T13:00:00Z,30.3085,-88.1395,3.015,6.04,1111122 
DISL,ioos:station:DISL:CATA:1,2010-07-08T13:30:00Z,30.3085,-88.1395,3.006,5.96,1111122 
DISL,ioos:station:DISL:CATA:1,2010-07-08T14:00:00Z,30.3085,-88.1395,3.002,5.81,1111122 
DISL,ioos:station:DISL:CATA:1,2010-07-08T14:30:00Z,30.3085,-88.1395,2.98,5.82,1111122 
DISL,ioos:station:DISL:CATA:1,2010-07-08T15:00:00Z,30.3085,-88.1395,2.968,5.68,1111122 
DISL,ioos:station:DISL:CATA:1,2010-07-08T15:30:00Z,30.3085,-88.1395,2.949,5.41,1111122 
DISL,ioos:station:DISL:CATA:1,2010-07-08T16:00:00Z,30.3085,-88.1395,2.907,5.41,1111122 
DISL,ioos:station:DISL:CATA:1,2010-07-08T16:30:00Z,30.3085,-88.1395,2.871,5.89,1111122 
DISL,ioos:station:DISL:CATA:1,2010-07-08T17:00:00Z,30.3085,-88.1395,2.833,6.87,1111122 
DISL,ioos:station:DISL:CATA:1,2010-07-08T17:30:00Z,30.3085,-88.1395,2.793,6.77,1111122 
DISL,ioos:station:DISL:CATA:1,2010-07-08T18:00:00Z,30.3085,-88.1395,2.746,7.15,1111122 
DISL,ioos:station:DISL:CATA:1,2010-07-08T18:30:00Z,30.3085,-88.1395,2.698,7.23,1111122 
DISL,ioos:station:DISL:CATA:1,2010-07-08T19:00:00Z,30.3085,-88.1395,2.656,7.04,1111122 
DISL,ioos:station:DISL:CATA:1,2010-07-08T19:30:00Z,30.3085,-88.1395,2.611,7.21,1111122 
DISL,ioos:station:DISL:CATA:1,2010-07-08T20:00:00Z,30.3085,-88.1395,2.576,7.15,1111122 
DISL,ioos:station:DISL:CATA:1,2010-07-08T20:30:00Z,30.3085,-88.1395,2.542,7.09,1111122 
DISL,ioos:station:DISL:CATA:1,2010-07-08T21:00:00Z,30.3085,-88.1395,2.502,7.17,1111122 
DISL,ioos:station:DISL:CATA:1,2010-07-08T21:30:00Z,30.3085,-88.1395,2.478,7.17,1111122 
DISL,ioos:station:DISL:CATA:1,2010-07-08T22:00:00Z,30.3085,-88.1395,2.464,7.13,1111122 
DISL,ioos:station:DISL:CATA:1,2010-07-08T22:30:00Z,30.3085,-88.1395,2.447,7.25,1111122 
DISL,ioos:station:DISL:CATA:1,2010-07-08T23:00:00Z,30.3085,-88.1395,2.432,7.21,1111122 
DISL,ioos:station:DISL:CATA:1,2010-07-08T23:30:00Z,30.3085,-88.1395,2.427,7.15,1111122 
DISL,ioos:station:DISL:CATA:1,2010-07-09T00:00:00Z,30.3085,-88.1395,2.428,6.98,1111122 
DISL,ioos:station:DISL:CATA:1,2010-07-09T00:30:00Z,30.3085,-88.1395,2.434,6.85,1111122 
DISL,ioos:station:DISL:CATA:1,2010-07-09T01:00:00Z,30.3085,-88.1395,2.446,6.65,1111122 
DISL,ioos:station:DISL:CATA:1,2010-07-09T01:30:00Z,30.3085,-88.1395,2.475,6.27,1111122 
DISL,ioos:station:DISL:CATA:1,2010-07-09T02:00:00Z,30.3085,-88.1395,2.485,6.62,1111122 
DISL,ioos:station:DISL:CATA:1,2010-07-09T02:30:00Z,30.3085,-88.1395,2.493,6.68,1111122 
DISL,ioos:station:DISL:CATA:1,2010-07-09T03:00:00Z,30.3085,-88.1395,2.511,6.78,1111122 
DISL,ioos:station:DISL:CATA:1,2010-07-09T03:30:00Z,30.3085,-88.1395,2.537,6.78,1111122 
DISL,ioos:station:DISL:CATA:1,2010-07-09T04:00:00Z,30.3085,-88.1395,2.567,6.71,1111122 
DISL,ioos:station:DISL:CATA:1,2010-07-09T04:30:00Z,30.3085,-88.1395,2.583,6.67,1111122 
DISL,ioos:station:DISL:CATA:1,2010-07-09T05:00:00Z,30.3085,-88.1395,2.61,6.63,1111122 
DISL,ioos:station:DISL:CATA:1,2010-07-09T05:30:00Z,30.3085,-88.1395,2.638,6.47,1111122 
DISL,ioos:station:DISL:CATA:1,2010-07-09T06:00:00Z,30.3085,-88.1395,2.666,6.4,1111122 
DISL,ioos:station:DISL:CATA:1,2010-07-09T06:30:00Z,30.3085,-88.1395,2.691,6.46,1111122 
DISL,ioos:station:DISL:CATA:1,2010-07-09T07:00:00Z,30.3085,-88.1395,2.721,6.49,1111122 
DISL,ioos:station:DISL:CATA:1,2010-07-09T07:30:00Z,30.3085,-88.1395,2.745,6.14,1111122 
DISL,ioos:station:DISL:CATA:1,2010-07-09T08:00:00Z,30.3085,-88.1395,2.759,6.04,1111122 
DISL,ioos:station:DISL:CATA:1,2010-07-09T08:30:00Z,30.3085,-88.1395,2.799,6.15,1111122 
DISL,ioos:station:DISL:CATA:1,2010-07-09T09:30:00Z,30.3085,-88.1395,2.828,6.32,1111122 
DISL,ioos:station:DISL:CATA:1,2010-07-09T09:30:00Z,30.3085,-88.1395,2.848,6.39,1111122 
DISL,ioos:station:DISL:CATA:1,2010-07-09T10:00:00Z,30.3085,-88.1395,2.891,6.44,1111122 
DISL,ioos:station:DISL:CATA:1,2010-07-09T10:30:00Z,30.3085,-88.1395,2.927,6.39,1111122 
DISL,ioos:station:DISL:CATA:1,2010-07-09T11:00:00Z,30.3085,-88.1395,2.95,6.34,1111122 
DISL,ioos:station:DISL:CATA:1,2010-07-09T11:30:00Z,30.3085,-88.1395,2.962,6.35,1111122 
DISL,ioos:station:DISL:CATA:1,2010-07-09T12:00:00Z,30.3085,-88.1395,2.987,6.32,1111122 
DISL,ioos:station:DISL:CATA:1,2010-07-09T12:30:00Z,30.3085,-88.1395,3.005,6.35,1111122 
DISL,ioos:station:DISL:CATA:1,2010-07-09T13:00:00Z,30.3085,-88.1395,3.004,6.37,1111122 
DISL,ioos:station:DISL:CATA:1,2010-07-09T13:30:00Z,30.3085,-88.1395,3.013,6.46,1111122 
DISL,ioos:station:DISL:CATA:1,2010-07-09T14:00:00Z,30.3085,-88.1395,3.004,6.5,1111122 
DISL,ioos:station:DISL:CATA:1,2010-07-09T14:30:00Z,30.3085,-88.1395,2.989,6.53,1111122 
DISL,ioos:station:DISL:CATA:1,2010-07-09T15:00:00Z,30.3085,-88.1395,2.978,6.46,1111122 
DISL,ioos:station:DISL:CATA:1,2010-07-09T15:30:00Z,30.3085,-88.1395,2.957,6.27,1111122 
DISL,ioos:station:DISL:CATA:1,2010-07-09T16:00:00Z,30.3085,-88.1395,2.94,5.82,1111122 
DISL,ioos:station:DISL:CATA:1,2010-07-09T16:30:00Z,30.3085,-88.1395,2.914,5.11,1111122 
DISL,ioos:station:DISL:CATA:1,2010-07-09T17:00:00Z,30.3085,-88.1395,2.87,5.35,1111122 
DISL,ioos:station:DISL:CATA:1,2010-07-09T17:30:00Z,30.3085,-88.1395,2.825,5.49,1111122 
DISL,ioos:station:DISL:CATA:1,2010-07-09T18:00:00Z,30.3085,-88.1395,2.772,5.12,1111122 
DISL,ioos:station:DISL:CATA:1,2010-07-09T18:30:00Z,30.3085,-88.1395,2.728,5.22,1111122 
DISL,ioos:station:DISL:CATA:1,2010-07-09T19:00:00Z,30.3085,-88.1395,2.678,5.41,1111122 
DISL,ioos:station:DISL:CATA:1,2010-07-09T19:30:00Z,30.3085,-88.1395,2.626,5.4,1111122 
DISL,ioos:station:DISL:CATA:1,2010-07-09T20:00:00Z,30.3085,-88.1395,2.577,5.37,1111122 
DISL,ioos:station:DISL:CATA:1,2010-07-09T20:30:00Z,30.3085,-88.1395,2.52,5.0,1111122 
DISL,ioos:station:DISL:CATA:1,2010-07-09T21:00:00Z,30.3085,-88.1395,2.497,4.95,1111122 
DISL,ioos:station:DISL:CATA:1,2010-07-09T21:30:00Z,30.3085,-88.1395,2.47,4.95,1111122 
DISL,ioos:station:DISL:CATA:1,2010-07-09T22:00:00Z,30.3085,-88.1395,2.441,5.36,1111122 
DISL,ioos:station:DISL:CATA:1,2010-07-09T22:30:00Z,30.3085,-88.1395,2.419,5.88,1111122 
DISL,ioos:station:DISL:CATA:1,2010-07-09T23:00:00Z,30.3085,-88.1395,2.392,5.97,1111122 
DISL,ioos:station:DISL:CATA:1,2010-07-09T23:30:00Z,30.3085,-88.1395,2.377,6.12,1111122 
DISL,ioos:station:DISL:CATA:1,2010-07-10T00:00:00Z,30.3085,-88.1395,2.366,6.12,1111122 
DISL,ioos:station:DISL:CATA:1,2010-07-10T00:30:00Z,30.3085,-88.1395,2.348,5.86,1111122 
DISL,ioos:station:DISL:CATA:1,2010-07-10T01:00:00Z,30.3085,-88.1395,2.352,6.03,1111122 
DISL,ioos:station:DISL:CATA:1,2010-07-10T01:30:00Z,30.3085,-88.1395,2.361,6.26,1111122 
DISL,ioos:station:DISL:CATA:1,2010-07-10T02:00:00Z,30.3085,-88.1395,2.367,6.23,1111122 
DISL,ioos:station:DISL:CATA:1,2010-07-10T02:30:00Z,30.3085,-88.1395,2.363,6.11,1111122 
DISL,ioos:station:DISL:CATA:1,2010-07-10T03:00:00Z,30.3085,-88.1395,2.368,5.71,1111122 
DISL,ioos:station:DISL:CATA:1,2010-07-10T03:30:00Z,30.3085,-88.1395,2.398,5.95,1111122 
DISL,ioos:station:DISL:CATA:1,2010-07-10T04:00:00Z,30.3085,-88.1395,2.413,5.72,1111122 
DISL,ioos:station:DISL:CATA:1,2010-07-10T04:30:00Z,30.3085,-88.1395,2.419,5.96,1111122 
DISL,ioos:station:DISL:CATA:1,2010-07-10T05:00:00Z,30.3085,-88.1395,2.439,6.07,1111122 
DISL,ioos:station:DISL:CATA:1,2010-07-10T05:30:00Z,30.3085,-88.1395,2.468,5.94,1111122 
DISL,ioos:station:DISL:CATA:1,2010-07-10T06:00:00Z,30.3085,-88.1395,2.477,5.6,1111122 
DISL,ioos:station:DISL:CATA:1,2010-07-10T06:30:00Z,30.3085,-88.1395,2.503,5.7,1111122 
DISL,ioos:station:DISL:CATA:1,2010-07-10T07:00:00Z,30.3085,-88.1395,2.541,5.55,1111122 
DISL,ioos:station:DISL:CATA:1,2010-07-10T07:30:00Z,30.3085,-88.1395,2.581,5.57,1111122 
DISL,ioos:station:DISL:CATA:1,2010-07-10T08:00:00Z,30.3085,-88.1395,2.604,5.42,1111122 
DISL,ioos:station:DISL:CATA:1,2010-07-10T08:30:00Z,30.3085,-88.1395,2.622,5.25,1111122 
DISL,ioos:station:DISL:CATA:1,2010-07-10T09:00:00Z,30.3085,-88.1395,2.668,5.35,1111122 
DISL,ioos:station:DISL:CATA:1,2010-07-10T09:30:00Z,30.3085,-88.1395,2.718,5.72,1111122 
DISL,ioos:station:DISL:CATA:1,2010-07-10T10:00:00Z,30.3085,-88.1395,2.762,5.89,1111122 
DISL,ioos:station:DISL:CATA:1,2010-07-10T10:30:00Z,30.3085,-88.1395,2.788,5.86,1111122 
DISL,ioos:station:DISL:CATA:1,2010-07-10T11:00:00Z,30.3085,-88.1395,2.821,5.85,1111122 
DISL,ioos:station:DISL:CATA:1,2010-07-10T11:30:00Z,30.3085,-88.1395,2.854,5.72,1111122 
DISL,ioos:station:DISL:CATA:1,2010-07-10T12:00:00Z,30.3085,-88.1395,2.88,5.65,1111122 
DISL,ioos:station:DISL:CATA:1,2010-07-10T12:30:00Z,30.3085,-88.1395,2.912,5.66,1111122 
DISL,ioos:station:DISL:CATA:1,2010-07-10T13:00:00Z,30.3085,-88.1395,2.923,5.72,1111122 
DISL,ioos:station:DISL:CATA:1,2010-07-10T13:30:00Z,30.3085,-88.1395,2.953,5.71,1111122 
DISL,ioos:station:DISL:CATA:1,2010-07-10T14:00:00Z,30.3085,-88.1395,2.965,5.85,1111122 
DISL,ioos:station:DISL:CATA:1,2010-07-10T14:30:00Z,30.3085,-88.1395,2.965,5.94,1111122 
DISL,ioos:station:DISL:CATA:1,2010-07-10T15:00:00Z,30.3085,-88.1395,2.963,5.99,1111122 
DISL,ioos:station:DISL:CATA:1,2010-07-10T15:30:00Z,30.3085,-88.1395,2.97,6.08,1111122 
DISL,ioos:station:DISL:CATA:1,2010-07-10T16:00:00Z,30.3085,-88.1395,2.948,6.2,1111122 
DISL,ioos:station:DISL:CATA:1,2010-07-10T16:30:00Z,30.3085,-88.1395,2.927,5.92,1111122 
DISL,ioos:station:DISL:CATA:1,2010-07-10T17:00:00Z,30.3085,-88.1395,2.893,5.57,1111122 
DISL,ioos:station:DISL:CATA:1,2010-07-10T17:30:00Z,30.3085,-88.1395,2.864,4.89,1111122 
DISL,ioos:station:DISL:CATA:1,2010-07-10T18:00:00Z,30.3085,-88.1395,2.823,5.23,1111122 
DISL,ioos:station:DISL:CATA:1,2010-07-10T18:30:00Z,30.3085,-88.1395,2.773,5.41,1111122 
DISL,ioos:station:DISL:CATA:1,2010-07-10T19:00:00Z,30.3085,-88.1395,2.736,5.27,1111122 
DISL,ioos:station:DISL:CATA:1,2010-07-10T19:30:00Z,30.3085,-88.1395,2.68,4.92,1111122 
DISL,ioos:station:DISL:CATA:1,2010-07-10T20:00:00Z,30.3085,-88.1395,2.623,5.9,1111122 
DISL,ioos:station:DISL:CATA:1,2010-07-10T20:30:00Z,30.3085,-88.1395,2.573,6.34,1111122 
DISL,ioos:station:DISL:CATA:1,2010-07-10T21:00:00Z,30.3085,-88.1395,2.713,6.69,1111122 
DISL,ioos:station:DISL:CATA:1,2010-07-10T21:00:00Z,30.3085,-88.1395,2.525,6.37,1111122 
DISL,ioos:station:DISL:CATA:1,2010-07-10T21:30:00Z,30.3085,-88.1395,2.739,6.65,1111122 
DISL,ioos:station:DISL:CATA:1,2010-07-10T21:30:00Z,30.3085,-88.1395,2.488,6.04,1111122 
DISL,ioos:station:DISL:CATA:1,2010-07-10T22:00:00Z,30.3085,-88.1395,2.754,6.68,1111122 
DISL,ioos:station:DISL:CATA:1,2010-07-10T22:00:00Z,30.3085,-88.1395,2.447,6.25,1111122 
DISL,ioos:station:DISL:CATA:1,2010-07-10T22:30:00Z,30.3085,-88.1395,2.728,6.61,1111122 
DISL,ioos:station:DISL:CATA:1,2010-07-10T22:30:00Z,30.3085,-88.1395,2.419,6.29,1111122 
DISL,ioos:station:DISL:CATA:1,2010-07-10T23:00:00Z,30.3085,-88.1395,2.744,6.63,1111122 
DISL,ioos:station:DISL:CATA:1,2010-07-10T23:00:00Z,30.3085,-88.1395,2.386,6.1,1111122 
DISL,ioos:station:DISL:CATA:1,2010-07-10T23:30:00Z,30.3085,-88.1395,2.762,6.61,1111122 
DISL,ioos:station:DISL:CATA:1,2010-07-10T23:30:00Z,30.3085,-88.1395,2.361,6.1,1111122 
DISL,ioos:station:DISL:CATA:1,2010-07-11T00:00:00Z,30.3085,-88.1395,2.35,6.12,1111122 
DISL,ioos:station:DISL:CATA:1,2010-07-11T00:30:00Z,30.3085,-88.1395,2.337,6.22,1111122 
DISL,ioos:station:DISL:CATA:1,2010-07-11T01:00:00Z,30.3085,-88.1395,2.312,6.27,1111122 
DISL,ioos:station:DISL:CATA:1,2010-07-11T01:30:00Z,30.3085,-88.1395,2.285,6.21,1111122 
DISL,ioos:station:DISL:CATA:1,2010-07-11T02:00:00Z,30.3085,-88.1395,2.28,6.24,1111122 
DISL,ioos:station:DISL:CATA:1,2010-07-11T02:30:00Z,30.3085,-88.1395,2.282,6.01,1111122 
DISL,ioos:station:DISL:CATA:1,2010-07-11T03:00:00Z,30.3085,-88.1395,2.277,5.93,1111122 
DISL,ioos:station:DISL:CATA:1,2010-07-11T03:30:00Z,30.3085,-88.1395,2.28,5.92,1111122 
DISL,ioos:station:DISL:CATA:1,2010-07-11T04:00:00Z,30.3085,-88.1395,2.323,5.87,1111122 
DISL,ioos:station:DISL:CATA:1,2010-07-11T04:30:00Z,30.3085,-88.1395,2.353,5.71,1111122 
DISL,ioos:station:DISL:CATA:1,2010-07-11T05:00:00Z,30.3085,-88.1395,2.363,6.09,1111122 
DISL,ioos:station:DISL:CATA:1,2010-07-11T05:30:00Z,30.3085,-88.1395,2.379,5.93,1111122 
DISL,ioos:station:DISL:CATA:1,2010-07-11T06:00:00Z,30.3085,-88.1395,2.383,5.88,1111122 
DISL,ioos:station:DISL:CATA:1,2010-07-11T06:30:00Z,30.3085,-88.1395,2.399,5.88,1111122 
DISL,ioos:station:DISL:CATA:1,2010-07-11T07:00:00Z,30.3085,-88.1395,2.445,5.89,1111122 
DISL,ioos:station:DISL:CATA:1,2010-07-11T07:30:00Z,30.3085,-88.1395,2.479,5.71,1111122 
DISL,ioos:station:DISL:CATA:1,2010-07-11T08:00:00Z,30.3085,-88.1395,2.513,5.65,1111122 
DISL,ioos:station:DISL:CATA:1,2010-07-11T08:30:00Z,30.3085,-88.1395,2.538,5.71,1111122 
DISL,ioos:station:DISL:CATA:1,2010-07-11T09:00:00Z,30.3085,-88.1395,2.564,5.58,1111122 
DISL,ioos:station:DISL:CATA:1,2010-07-11T09:30:00Z,30.3085,-88.1395,2.601,5.47,1111122 
DISL,ioos:station:DISL:CATA:1,2010-07-11T10:00:00Z,30.3085,-88.1395,2.646,5.37,1111122 
DISL,ioos:station:DISL:CATA:1,2010-07-11T10:30:00Z,30.3085,-88.1395,2.686,5.21,1111122 
DISL,ioos:station:DISL:CATA:1,2010-07-11T11:00:00Z,30.3085,-88.1395,2.725,5.47,1111122 
DISL,ioos:station:DISL:CATA:1,2010-07-11T11:30:00Z,30.3085,-88.1395,2.755,5.48,1111122 
DISL,ioos:station:DISL:CATA:1,2010-07-11T12:00:00Z,30.3085,-88.1395,2.792,5.54,1111122 
DISL,ioos:station:DISL:CATA:1,2010-07-11T12:30:00Z,30.3085,-88.1395,2.833,5.64,1111122 
DISL,ioos:station:DISL:CATA:1,2010-07-11T13:00:00Z,30.3085,-88.1395,2.855,5.67,1111122 
DISL,ioos:station:DISL:CATA:1,2010-07-11T13:30:00Z,30.3085,-88.1395,2.879,5.73,1111122 
DISL,ioos:station:DISL:CATA:1,2010-07-11T14:00:00Z,30.3085,-88.1395,2.889,5.81,1111122 
DISL,ioos:station:DISL:CATA:1,2010-07-11T14:30:00Z,30.3085,-88.1395,2.91,5.85,1111122 
DISL,ioos:station:DISL:CATA:1,2010-07-11T15:00:00Z,30.3085,-88.1395,2.925,5.85,1111122 
DISL,ioos:station:DISL:CATA:1,2010-07-11T15:30:00Z,30.3085,-88.1395,2.932,5.89,1111122 
DISL,ioos:station:DISL:CATA:1,2010-07-11T16:00:00Z,30.3085,-88.1395,2.929,5.91,1111122 
DISL,ioos:station:DISL:CATA:1,2010-07-11T16:30:00Z,30.3085,-88.1395,2.918,5.84,1111122 
DISL,ioos:station:DISL:CATA:1,2010-07-11T17:00:00Z,30.3085,-88.1395,2.889,5.81,1111122 
DISL,ioos:station:DISL:CATA:1,2010-07-11T17:30:00Z,30.3085,-88.1395,2.87,5.4,1111122 
DISL,ioos:station:DISL:CATA:1,2010-07-11T18:00:00Z,30.3085,-88.1395,2.846,4.4,1111122 
DISL,ioos:station:DISL:CATA:1,2010-07-11T18:30:00Z,30.3085,-88.1395,2.8,4.98,1111122 
DISL,ioos:station:DISL:CATA:1,2010-07-11T19:00:00Z,30.3085,-88.1395,2.76,5.0,1111122 
DISL,ioos:station:DISL:CATA:1,2010-07-11T19:30:00Z,30.3085,-88.1395,2.712,5.08,1111122 
DISL,ioos:station:DISL:CATA:1,2010-07-11T20:00:00Z,30.3085,-88.1395,2.668,5.15,1111122 
DISL,ioos:station:DISL:CATA:1,2010-07-11T20:30:00Z,30.3085,-88.1395,2.615,4.86,1111122 
DISL,ioos:station:DISL:CATA:1,2010-07-11T21:00:00Z,30.3085,-88.1395,2.566,5.15,1111122 
DISL,ioos:station:DISL:CATA:1,2010-07-11T21:30:00Z,30.3085,-88.1395,2.524,5.45,1111122 
DISL,ioos:station:DISL:CATA:1,2010-07-11T22:00:00Z,30.3085,-88.1395,2.481,5.78,1111122 
DISL,ioos:station:DISL:CATA:1,2010-07-11T22:30:00Z,30.3085,-88.1395,2.448,5.91,1111122 
DISL,ioos:station:DISL:CATA:1,2010-07-11T23:00:00Z,30.3085,-88.1395,2.404,5.99,1111122 
DISL,ioos:station:DISL:CATA:1,2010-07-11T23:30:00Z,30.3085,-88.1395,2.378,6.05,1111122 
DISL,ioos:station:DISL:CATA:1,2010-07-12T00:00:00Z,30.3085,-88.1395,2.344,5.89,1111122 
DISL,ioos:station:DISL:CATA:1,2010-07-12T00:30:00Z,30.3085,-88.1395,2.336,5.79,1111122 
DISL,ioos:station:DISL:CATA:1,2010-07-12T01:00:00Z,30.3085,-88.1395,2.32,5.73,1111122 
DISL,ioos:station:DISL:CATA:1,2010-07-12T01:30:00Z,30.3085,-88.1395,2.305,5.67,1111122 
DISL,ioos:station:DISL:CATA:1,2010-07-12T02:00:00Z,30.3085,-88.1395,2.291,5.65,1111122 
DISL,ioos:station:DISL:CATA:1,2010-07-12T02:30:00Z,30.3085,-88.1395,2.272,5.57,1111122 
DISL,ioos:station:DISL:CATA:1,2010-07-12T03:00:00Z,30.3085,-88.1395,2.26,5.35,1111122 
DISL,ioos:station:DISL:CATA:1,2010-07-12T03:30:00Z,30.3085,-88.1395,2.266,5.18,1111122 
DISL,ioos:station:DISL:CATA:1,2010-07-12T04:00:00Z,30.3085,-88.1395,2.289,5.3,1111122 
DISL,ioos:station:DISL:CATA:1,2010-07-12T04:30:00Z,30.3085,-88.1395,2.294,5.73,1111122 
DISL,ioos:station:DISL:CATA:1,2010-07-12T05:00:00Z,30.3085,-88.1395,2.301,5.78,1111122 
DISL,ioos:station:DISL:CATA:1,2010-07-12T05:30:00Z,30.3085,-88.1395,2.323,5.79,1111122 
DISL,ioos:station:DISL:CATA:1,2010-07-12T06:00:00Z,30.3085,-88.1395,2.345,5.76,1111122 
DISL,ioos:station:DISL:CATA:1,2010-07-12T06:30:00Z,30.3085,-88.1395,2.377,5.77,1111122 
DISL,ioos:station:DISL:CATA:1,2010-07-12T07:00:00Z,30.3085,-88.1395,2.401,5.97,1111122 
DISL,ioos:station:DISL:CATA:1,2010-07-12T07:30:00Z,30.3085,-88.1395,2.418,5.76,1111122 
DISL,ioos:station:DISL:CATA:1,2010-07-12T08:00:00Z,30.3085,-88.1395,2.445,5.57,1111122 
DISL,ioos:station:DISL:CATA:1,2010-07-12T08:30:00Z,30.3085,-88.1395,2.467,5.74,1111122 
DISL,ioos:station:DISL:CATA:1,2010-07-12T09:00:00Z,30.3085,-88.1395,2.484,5.52,1111122 
DISL,ioos:station:DISL:CATA:1,2010-07-12T09:30:00Z,30.3085,-88.1395,2.501,5.45,1111122 
DISL,ioos:station:DISL:CATA:1,2010-07-12T10:00:00Z,30.3085,-88.1395,2.537,5.4,1111122 
DISL,ioos:station:DISL:CATA:1,2010-07-12T10:30:00Z,30.3085,-88.1395,2.568,5.32,1111122 
DISL,ioos:station:DISL:CATA:1,2010-07-12T11:00:00Z,30.3085,-88.1395,2.606,5.56,1111122 
DISL,ioos:station:DISL:CATA:1,2010-07-12T11:30:00Z,30.3085,-88.1395,2.653,5.62,1111122 
DISL,ioos:station:DISL:CATA:1,2010-07-12T12:00:00Z,30.3085,-88.1395,2.692,5.66,1111122 
DISL,ioos:station:DISL:CATA:1,2010-07-12T12:30:00Z,30.3085,-88.1395,2.727,5.68,1111122 